Weather History for Valparaiso, FL

Change the Weather History Date:

Friday, December 7, 2012

  Actual Average Record
Temperature  
Mean Temperature 62 °F -  
Max Temperature 66 °F 65 °F 78 °F (1951)
Min Temperature 59 °F 40 °F 22 °F (1977)
Degree Days  
Heating Degree Days 2    
Growing Degree Days 12 (Base 50)    
Moisture  
Dew Point 60 °F    
Average Humidity 87    
Maximum Humidity 95    
Minimum Humidity 80    
Precipitation  
Precipitation 0.00 in - - ()
Sea Level Pressure  
Sea Level Pressure 30.00 in    
Wind  
Wind Speed 6 mph (East)    
Max Wind Speed 13 mph    
Max Gust Speed -    
Visibility 9 miles    
Events      
Averages and records for this station are not official NWS values.
T = Trace of Precipitation, MM = Missing Value Source: NWS Daily Summary

Daily Weather History Graph

Daily Weather History Graph

Search for Another Location

Airport:

Trip Planner

Search our weather history database for the weather conditions in past years. The results will help you decide how hot, cold, wet, or windy it might be!

Date:

Astronomy

Dec. 07, 2012 Rise Set
Actual Time 6:30 AM CST 4:45 PM CST
Civil Twilight 6:04 AM CST 5:11 PM CST
Nautical Twilight 5:34 AM CST 5:41 PM CST
Astronomical Twilight 5:04 AM CST 6:10 PM CST
Moon 12:11 AM CST (12/7) 12:21 PM CST (12/7)
Length of Visible Light 11h 07m
Length of Day
10h 14m
Last Quarter, 38% of the Moon is Illuminated
Dec 7
Last Quarter
Dec 13
New
Dec 19
First Quarter
Dec 28
Full
Jan 4
Last Quarter

Hourly Weather History & Observations

Time (CST) Temp. Dew Point Humidity Pressure Visibility Wind Dir Wind Speed Gust Speed Precip Events Conditions
12:57 AM 61.2 °F 57.6 °F 88% 30.00 in 10.0 mi East 4.6 mph - N/A   Partly Cloudy
1:56 AM 62.1 °F 58.8 °F 89% 30.00 in 10.0 mi ENE 4.6 mph - N/A   Clear
2:56 AM 60.8 °F 58.1 °F 91% 29.98 in 10.0 mi ENE 4.6 mph - N/A   Partly Cloudy
4:57 AM 59.9 °F 57.9 °F 93% 30.00 in 10.0 mi ENE 4.6 mph - N/A   Mostly Cloudy
5:59 AM 60.4 °F 58.5 °F 93% 30.01 in 10.0 mi East 8.1 mph - N/A   Overcast
6:23 AM 60.8 °F 59.0 °F 94% 30.00 in 10.0 mi East 8.1 mph - N/A   Overcast
6:55 AM 60.8 °F 58.8 °F 93% 30.03 in 10.0 mi ENE 5.8 mph - N/A   Overcast
6:56 AM 60.8 °F 59.0 °F 94% 30.03 in 10.0 mi East 8.1 mph - N/A   Overcast
7:20 AM 60.8 °F 59.0 °F 94% 30.02 in 2.0 mi East 8.1 mph - N/A   Overcast
7:47 AM 60.8 °F 59.0 °F 94% 30.02 in 2.0 mi ENE 6.9 mph - N/A   Overcast
7:55 AM 60.4 °F 59.0 °F 95% 30.04 in 2.0 mi ENE 6.9 mph - N/A   Overcast
8:28 AM 60.8 °F 59.0 °F 94% 30.03 in 4.0 mi ENE 6.9 mph - N/A   Overcast
8:55 AM 61.5 °F 60.1 °F 95% 30.06 in 7.0 mi ENE 9.2 mph - N/A   Overcast
9:28 AM 62.6 °F 60.8 °F 94% 30.04 in 10.0 mi ENE 8.1 mph - N/A   Overcast
9:55 AM 63.7 °F 60.3 °F 89% 30.06 in 10.0 mi ENE 8.1 mph - N/A   Overcast
10:28 AM 64.4 °F 60.8 °F 88% 30.02 in 10.0 mi East 6.9 mph - N/A   Mostly Cloudy
10:55 AM 65.8 °F 60.4 °F 83% 30.04 in 10.0 mi East 6.9 mph - N/A   Mostly Cloudy
11:25 AM 66.2 °F 60.8 °F 83% 30.00 in 10.0 mi ENE 6.9 mph - N/A   Mostly Cloudy
11:41 AM 66.2 °F 60.8 °F 83% 29.99 in 10.0 mi ENE 6.9 mph - N/A   Mostly Cloudy
11:55 AM 66.9 °F 60.6 °F 80% 30.00 in 10.0 mi East 6.9 mph - N/A   Mostly Cloudy
12:05 PM 66.2 °F 60.8 °F 83% 29.98 in 10.0 mi ESE 5.8 mph - N/A   Overcast
12:55 PM 66.7 °F 60.4 °F 80% 29.98 in 10.0 mi ESE 12.7 mph - N/A   Mostly Cloudy
1:34 PM 66.2 °F 60.8 °F 83% 29.95 in 10.0 mi East 8.1 mph - N/A   Overcast
1:55 PM 66.6 °F 60.6 °F 81% 29.97 in 10.0 mi ESE 8.1 mph - N/A   Overcast
2:11 PM 66.2 °F 60.8 °F 83% 29.95 in 10.0 mi East 8.1 mph - N/A   Mostly Cloudy
2:55 PM 66.6 °F 60.8 °F 82% 29.97 in 10.0 mi East 9.2 mph - N/A   Overcast
3:30 PM 66.2 °F 60.8 °F 83% 29.95 in 10.0 mi East 6.9 mph - N/A   Overcast
3:55 PM 66.4 °F 60.8 °F 82% 29.96 in 10.0 mi East 5.8 mph - N/A   Overcast
4:55 PM 65.8 °F 60.6 °F 83% 29.97 in 10.0 mi East 4.6 mph - N/A   Overcast
5:55 PM 65.7 °F 60.8 °F 84% 29.97 in 10.0 mi East 6.9 mph - N/A   Overcast
6:55 PM 65.1 °F 60.6 °F 85% 29.97 in 10.0 mi East 4.6 mph - N/A   Mostly Cloudy
7:55 PM 64.8 °F 60.8 °F 87% 29.99 in 10.0 mi East 4.6 mph - N/A   Overcast
8:55 PM 64.6 °F 60.8 °F 88% 29.99 in 10.0 mi East 3.5 mph - N/A   Overcast
9:55 PM 64.8 °F 60.6 °F 86% 30.00 in 10.0 mi ENE 5.8 mph - N/A   Mostly Cloudy
10:55 PM 64.4 °F 60.4 °F 87% 30.00 in 10.0 mi East 5.8 mph - N/A   Overcast
11:55 PM 62.1 °F 57.6 °F 85% 30.00 in 10.0 mi ENE 6.9 mph - N/A   Mostly Cloudy